[[{"header":{"parameterUnit":"m.s-1","parameterCategory":1,"la1":30.2991,"la2":30.254,"lo1":-89.0895,"lo2":-89.0444,"dy":0.0017,"dx":0.0017,"nx":28,"ny":28,"refTime":"2023-06-27T21:00:00:Z","depth":0,"parameterNumber":2,"parameterNumberName":"U-component_of_WINDS"},"data":[0,0,0,0,0,0,0,0,0,0,0,0,0,0,0,0,0,0,0,0,0,0,0,0,0,0,0,0,0,0,0,0,0,0,0,0,0,0,0,0,0,0,0,0,0,0,0,0,0,0,0,0,0,0,0,0,0,0,1.1188,1.1189,0,1.1233,1.1234,1.1234,1.1165,1.1162,1.116,1.1158,1.1206,1.1209,1.1213,0,0,0,0,0,0,0,0,0,0,0,0,0,1.1046,1.1048,1.1188,1.1189,1.1189,1.1233,1.1234,1.1234,1.1165,1.1162,1.1159,1.1157,1.1205,1.1209,1.1213,0,0,0,0,0,0,0,0,0,0,0,0,0,1.1101,1.1049,1.1188,1.116,1.1158,1.1233,1.1234,1.1234,1.1166,1.1162,1.1159,1.1155,1.1203,1.1208,1.1214,1.1319,0,0,1.123,1.1232,0,0,0,0,0,0,0,0,1.1098,1.1106,1.1164,1.1162,1.116,1.119,1.1201,1.1263,1.1167,1.1163,1.1158,1.1153,1.1203,1.1208,1.1225,1.1321,1.1323,1.123,1.1233,1.1236,1.1237,0,0,0,0,0,0,0,1.1094,1.1104,1.1206,1.1165,1.1162,1.1146,1.115,1.1212,1.1203,1.1163,1.1158,1.1164,1.1202,1.122,1.1226,1.1324,1.123,1.1235,1.1238,1.124,1.151,1.1513,0,0,0,0,0,0,1.1093,1.1101,1.1205,1.1207,1.1119,1.1152,1.1156,1.1184,1.1202,1.1201,1.1167,1.1161,1.1213,1.1219,1.1227,1.1352,1.1236,1.1241,1.1244,1.1506,1.151,1.1515,0,0,0,0,0,0,1.109,1.1103,1.1203,1.1153,1.1164,1.1158,1.119,1.1187,1.1205,1.1205,1.1204,1.1187,1.121,1.1219,1.1297,1.1353,1.1243,1.1248,1.1501,1.1507,1.1513,1.1603,0,0,0,0,0,0,1.1087,1.1103,1.1142,1.1154,1.1167,1.1271,1.1193,1.119,1.1214,1.1206,1.1224,1.1223,1.1208,1.1289,1.1302,1.1358,1.1252,1.1496,1.1504,1.1511,1.1595,1.1612,1.1626,0,0,0,0,0,1.1082,1.1166,1.1144,1.1157,1.1216,1.1275,1.1282,1.1262,1.1219,1.1259,1.1259,1.1223,1.1345,1.1298,1.1311,1.137,1.1492,1.1502,1.151,1.1589,1.1609,1.1625,0,0,0,0,0,0,1.116,1.1167,1.1143,1.1233,1.1254,1.1263,1.1312,1.1284,1.1318,1.1309,1.1283,1.1288,1.1371,1.1378,1.1325,1.1474,1.1411,1.1423,1.1466,1.1485,1.15,1.1497,1.1256,0,0,0,0,0,1.1188,1.1234,1.1237,1.1317,1.1328,1.1319,1.1344,1.1327,1.1347,1.1356,1.1362,1.1384,1.1427,1.1456,1.1496,1.1596,1.16,1.1643,1.1658,1.1671,1.1682,1.1737,1.1757,1.1544,1.1544,1.1544,0,0,1.1246,1.1255,1.1286,1.1333,1.1347,1.1397,1.1327,1.1382,1.1419,1.1364,1.1438,1.1443,1.1466,1.1555,1.1595,1.1564,1.1742,1.1682,1.1692,1.1697,1.1748,1.1768,1.1786,1.155,1.1549,1.1548,0,0,1.1377,1.1388,1.1456,1.1472,1.1494,1.1487,1.1503,1.1517,1.1518,1.1591,1.1552,1.1596,1.1671,1.1689,1.1708,1.1848,1.1816,1.1861,1.1941,1.1995,1.2012,1.2026,1.2078,1.2096,1.1872,1.1872,1.1873,0,1.1447,1.1519,1.1495,1.1553,1.1576,1.1528,1.1598,1.1614,1.1648,1.1666,1.163,1.1724,1.1736,1.1829,1.1863,1.188,1.1899,1.186,1.2011,1.2026,1.2039,1.2088,1.2107,1.1878,1.1877,1.1877,1.1876,0,1.1604,1.1655,1.1707,1.1741,1.177,1.1833,1.182,1.1852,1.1832,1.183,1.1906,1.1918,1.1961,1.1981,1.1963,1.2073,1.2053,1.2015,1.1952,1.2065,1.211,1.2129,1.1886,1.1884,1.1882,1.1881,0,0,1.1786,1.1806,1.1826,1.1842,1.1863,1.1902,1.1964,1.2005,1.2034,1.2059,1.2111,1.2176,1.2141,1.2163,1.2146,1.2193,1.2305,1.2149,1.2149,1.2179,1.2429,1.2458,1.248,1.2283,1.2287,1.229,1.2427,0,1.1917,1.2024,1.2005,1.2109,1.2156,1.2113,1.2167,1.2186,1.2186,1.2227,1.2226,1.2273,1.2222,1.2236,1.228,1.2282,1.2355,1.2271,1.2333,1.2336,1.233,1.2503,1.2535,1.2664,1.2445,1.2447,1.245,0,1.2085,1.2117,1.2226,1.2241,1.226,1.2309,1.2346,1.2385,1.2407,1.2403,1.2428,1.2403,1.2466,1.2402,1.2489,1.2433,1.2457,1.2462,1.2466,1.2472,1.24,1.2515,1.2704,1.2724,1.2477,1.2475,1.2473,0,1.2209,1.2279,1.2353,1.2368,1.2386,1.2422,1.2432,1.245,1.2476,1.2509,1.2526,1.2565,1.2587,1.2618,1.2605,1.2559,1.2696,1.263,1.2696,1.2696,1.2727,1.2726,1.2924,1.2741,1.2741,1.274,1.274,0,1.2359,1.2427,1.2409,1.2455,1.2531,1.2509,1.2585,1.259,1.2607,1.2653,1.2618,1.2663,1.2642,1.2686,1.2676,1.2751,1.276,1.276,1.2757,1.2764,1.2764,1.278,1.2771,1.2745,1.2744,1.2743,1.2742,0,1.251,1.25,1.2579,1.259,1.2595,1.2651,1.2661,1.2705,1.2701,1.2761,1.2774,1.277,1.282,1.2809,1.2864,1.2857,1.2952,1.2937,1.2944,1.2941,1.3008,1.3003,1.3225,1.3253,1.3051,1.3053,1.3055,0,1.2606,1.2658,1.2676,1.2704,1.2717,1.2763,1.279,1.277,1.28,1.2829,1.287,1.2916,1.2953,1.3035,1.3037,1.3079,1.3066,1.3141,1.3072,1.3078,1.3068,1.3066,1.3072,1.3155,1.3157,1.3159,1.316,0,1.2779,1.2772,1.2812,1.2851,1.2883,1.2913,1.2939,1.2965,1.2947,1.2982,1.3033,1.3061,1.3117,1.3165,1.3204,1.3215,1.3186,1.3182,1.32,1.3208,1.3211,1.3212,1.2983,1.3177,1.3176,1.3174,1.3173,1.3173,1.2907,1.2952,1.2971,1.3017,1.3034,1.306,1.3102,1.3104,1.3146,1.319,1.3176,1.3234,1.3256,1.3305,1.3321,1.3367,1.3339,1.3364,1.3371,1.3377,1.3386,1.3203,1.3373,1.3373,1.3373,1.3372,1.3372,0,1.3079,1.309,1.3132,1.317,1.3206,1.3175,1.3202,1.3235,1.3287,1.3309,1.3346,1.3405,1.3451,1.3457,1.35,1.3536,1.3524,1.3548,1.3546,1.3549,1.3408,1.3389,1.3557,1.3557,1.3557,1.3557,1.3557,1.3557,1.3173,1.3248,1.3243,1.3326,1.3336,1.3393,1.3411,1.3435,1.3453,1.352,1.3558,1.3562,1.3578,1.3623,1.3664,1.3665,1.3683,1.3713,1.3709,1.3577,1.3559,1.3541,1.3523,1.3717,1.3717,1.3846,1.3848,1.3849]},{"header":{"parameterUnit":"m.s-1","parameterCategory":1,"la1":30.2991,"la2":30.254,"lo1":-89.0895,"lo2":-89.0444,"dy":0.0017,"dx":0.0017,"nx":28,"ny":28,"refTime":"2023-06-27T21:00:00:Z","depth":0,"parameterNumber":3,"parameterNumberName":"V-component_of_WINDS"},"data":[0,0,0,0,0,0,0,0,0,0,0,0,0,0,0,0,0,0,0,0,0,0,0,0,0,0,0,0,0,0,0,0,0,0,0,0,0,0,0,0,0,0,0,0,0,0,0,0,0,0,0,0,0,0,0,0,0,0,-1.7771,-1.7771,0,-1.7835,-1.7835,-1.7836,-1.7898,-1.7899,-1.7899,-1.79,-1.7959,-1.796,-1.7961,0,0,0,0,0,0,0,0,0,0,0,0,0,-1.7697,-1.7698,-1.7771,-1.7771,-1.7772,-1.7835,-1.7836,-1.7836,-1.7898,-1.7899,-1.79,-1.7901,-1.7959,-1.796,-1.7961,0,0,0,0,0,0,0,0,0,0,0,0,0,-1.7741,-1.7698,-1.7771,-1.7811,-1.7815,-1.7834,-1.7836,-1.7837,-1.7897,-1.7899,-1.79,-1.7901,-1.7959,-1.796,-1.7961,-1.7945,0,0,-1.7965,-1.7966,0,0,0,0,0,0,0,0,-1.7739,-1.7744,-1.7804,-1.7808,-1.7813,-1.786,-1.7831,-1.7873,-1.7897,-1.7866,-1.79,-1.7902,-1.7925,-1.7929,-1.7938,-1.7947,-1.795,-1.7965,-1.7966,-1.7966,-1.7967,0,0,0,0,0,0,0,-1.7736,-1.7742,-1.7796,-1.7805,-1.781,-1.7824,-1.7831,-1.7839,-1.7887,-1.7869,-1.7873,-1.788,-1.7927,-1.7937,-1.794,-1.7951,-1.7965,-1.7966,-1.7967,-1.7967,-1.7952,-1.7951,0,0,0,0,0,0,-1.7727,-1.7739,-1.7794,-1.7798,-1.7778,-1.7824,-1.7833,-1.7843,-1.7888,-1.7896,-1.7879,-1.7883,-1.7934,-1.7938,-1.7942,-1.7928,-1.7966,-1.7968,-1.7968,-1.7953,-1.7952,-1.7951,0,0,0,0,0,0,-1.7725,-1.7731,-1.7791,-1.777,-1.7778,-1.7824,-1.7835,-1.7844,-1.7853,-1.7896,-1.7904,-1.788,-1.7935,-1.794,-1.7945,-1.7931,-1.7968,-1.7969,-1.7955,-1.7953,-1.7951,-1.7898,0,0,0,0,0,0,-1.7723,-1.773,-1.7726,-1.7769,-1.7779,-1.7794,-1.7835,-1.7844,-1.7856,-1.7862,-1.7899,-1.7906,-1.7937,-1.7942,-1.7946,-1.7933,-1.797,-1.7956,-1.7954,-1.7952,-1.7901,-1.7895,-1.7889,0,0,0,0,0,-1.772,-1.7706,-1.7725,-1.7731,-1.7775,-1.7793,-1.7799,-1.7836,-1.7855,-1.785,-1.7877,-1.7905,-1.7931,-1.7942,-1.7947,-1.7934,-1.7957,-1.7954,-1.7952,-1.7904,-1.7896,-1.789,0,0,0,0,0,0,-1.7657,-1.7713,-1.7734,-1.7734,-1.7759,-1.7803,-1.7799,-1.7825,-1.7843,-1.7847,-1.789,-1.7898,-1.7898,-1.7916,-1.7927,-1.7922,-1.7948,-1.7946,-1.791,-1.7903,-1.7897,-1.7894,-1.7971,0,0,0,0,0,-1.7644,-1.7656,-1.7703,-1.7698,-1.771,-1.7752,-1.7761,-1.7788,-1.7814,-1.7824,-1.7852,-1.7874,-1.7888,-1.7896,-1.7911,-1.7904,-1.7913,-1.7897,-1.7891,-1.7886,-1.7885,-1.7884,-1.7878,-1.7942,-1.7942,-1.7942,0,0,-1.7615,-1.7647,-1.7652,-1.7687,-1.7709,-1.772,-1.776,-1.7769,-1.7778,-1.7825,-1.7832,-1.7853,-1.7881,-1.788,-1.7881,-1.7895,-1.7869,-1.7883,-1.7878,-1.788,-1.7881,-1.7875,-1.787,-1.794,-1.7941,-1.7941,0,0,-1.757,-1.7595,-1.7595,-1.7618,-1.7652,-1.768,-1.768,-1.7721,-1.7738,-1.7746,-1.7782,-1.7791,-1.7813,-1.7833,-1.7846,-1.781,-1.7836,-1.7813,-1.7782,-1.7781,-1.7776,-1.7772,-1.7761,-1.7757,-1.781,-1.781,-1.781,0,-1.753,-1.755,-1.7591,-1.76,-1.7615,-1.766,-1.7661,-1.7679,-1.7715,-1.7724,-1.7739,-1.777,-1.7792,-1.7798,-1.7789,-1.7797,-1.7799,-1.781,-1.7774,-1.777,-1.7767,-1.7757,-1.7753,-1.7808,-1.7808,-1.7808,-1.7808,0,-1.75,-1.7513,-1.7509,-1.7547,-1.7561,-1.7565,-1.7606,-1.7614,-1.764,-1.7666,-1.7674,-1.7702,-1.7725,-1.7727,-1.775,-1.7736,-1.7745,-1.7766,-1.7794,-1.7757,-1.7749,-1.7745,-1.7803,-1.7804,-1.7805,-1.7806,0,0,-1.7418,-1.748,-1.7478,-1.7497,-1.7538,-1.7548,-1.7554,-1.7579,-1.7586,-1.7609,-1.7616,-1.7634,-1.7656,-1.767,-1.7695,-1.7694,-1.7667,-1.7717,-1.7718,-1.7709,-1.7656,-1.7641,-1.7636,-1.7684,-1.7684,-1.7683,-1.7654,0,-1.7381,-1.7399,-1.7437,-1.7441,-1.7454,-1.7498,-1.7504,-1.7529,-1.7553,-1.7567,-1.7593,-1.7607,-1.7632,-1.7642,-1.7643,-1.767,-1.7657,-1.7672,-1.7691,-1.7691,-1.7685,-1.7631,-1.7616,-1.7587,-1.7651,-1.765,-1.765,0,-1.7341,-1.7366,-1.7372,-1.7416,-1.7423,-1.7427,-1.7454,-1.7467,-1.7496,-1.7514,-1.7531,-1.7561,-1.7569,-1.7593,-1.7605,-1.7614,-1.7624,-1.7638,-1.7638,-1.7643,-1.767,-1.7637,-1.7578,-1.7575,-1.7645,-1.7645,-1.7645,0,-1.7284,-1.7317,-1.7327,-1.7341,-1.7391,-1.7394,-1.7414,-1.7445,-1.7458,-1.748,-1.7489,-1.7511,-1.7523,-1.7538,-1.7573,-1.7587,-1.7581,-1.7608,-1.7597,-1.7596,-1.7595,-1.7595,-1.754,-1.7597,-1.7597,-1.7597,-1.7597,0,-1.7241,-1.7244,-1.7303,-1.7308,-1.7313,-1.7356,-1.7358,-1.7382,-1.741,-1.7421,-1.7458,-1.7466,-1.751,-1.7523,-1.7549,-1.7557,-1.7561,-1.7575,-1.7583,-1.7574,-1.7572,-1.7582,-1.7586,-1.7596,-1.7596,-1.7596,-1.7597,0,-1.7178,-1.7217,-1.7231,-1.7278,-1.729,-1.7292,-1.7331,-1.7338,-1.7365,-1.7378,-1.7384,-1.7426,-1.7444,-1.7479,-1.7505,-1.7523,-1.7525,-1.7536,-1.7516,-1.7521,-1.7509,-1.7511,-1.746,-1.7456,-1.7513,-1.7512,-1.7512,0,-1.7149,-1.7153,-1.7202,-1.7214,-1.7234,-1.725,-1.7265,-1.7307,-1.732,-1.7355,-1.7358,-1.7379,-1.7399,-1.7425,-1.7457,-1.7478,-1.7491,-1.7472,-1.7495,-1.7486,-1.7494,-1.7495,-1.7496,-1.7468,-1.7467,-1.7466,-1.7466,0,-1.7095,-1.7115,-1.7136,-1.7164,-1.7182,-1.7205,-1.723,-1.7236,-1.7283,-1.7296,-1.7317,-1.7332,-1.7361,-1.7382,-1.7408,-1.7427,-1.7454,-1.7458,-1.7457,-1.7449,-1.7438,-1.7447,-1.7505,-1.7459,-1.746,-1.7461,-1.7461,-1.7461,-1.705,-1.7057,-1.7094,-1.7116,-1.714,-1.7163,-1.7173,-1.7203,-1.7222,-1.7251,-1.7273,-1.7292,-1.7322,-1.7361,-1.7378,-1.7393,-1.7406,-1.7403,-1.7403,-1.7403,-1.74,-1.7434,-1.7397,-1.7397,-1.7397,-1.7398,-1.7398,0,-1.7,-1.7026,-1.7047,-1.7083,-1.7101,-1.7127,-1.7156,-1.7169,-1.7186,-1.7213,-1.7233,-1.7257,-1.7278,-1.7312,-1.7335,-1.734,-1.7354,-1.7345,-1.7347,-1.7351,-1.7386,-1.7386,-1.7335,-1.7335,-1.7335,-1.7335,-1.7335,-1.7335,-1.6976,-1.699,-1.7015,-1.7041,-1.7066,-1.7088,-1.7103,-1.7124,-1.7147,-1.7173,-1.7192,-1.7215,-1.7245,-1.7271,-1.7291,-1.73,-1.7308,-1.7296,-1.731,-1.7342,-1.7348,-1.7354,-1.7354,-1.7297,-1.7297,-1.7274,-1.7274,-1.7274]}]]